Location: Kaseke
(18.0171°S, 31.0526°E)
Time: 12:21:22
(UTC+00:00)

Atlas Centaur 2 - Pass Details

Date: 14 July 2020
Orbit: 459 x 1310 km, 30.4° (Epoch: 08 August)

Event Time Altitude Azimuth Distance (km) Brightness Sun altitude
Exits shadow 01:49:59 35° 157° (SSE) 1,974 4.0 -36.5°
Drops below altitude 10° 01:55:15 10° 125° (SE) 3,198 5.6 -35.3°
Sets 01:58:13 0° 118° (ESE) 4,078 6.3 -34.6°
